Погода в Ивашеве

Россия / Костромская область     57°38′38″N   42°12′43″E
темп.,
°C
ветер,
м/с
пор.,
м/с
влажн.,
%
обл.,
%
осадки,
мм/ч
давл.,
гПа
погр.,
м
7 марта, вс
вс700:00−15юз239747 0.0 101141
03:00−17ююз359853 0.0 100885
06:00−14ю4119583 0.0 1004259
09:00−9ю6139391 0.1 1000650
12:00−7ю61193100 1.5 996927
15:00−6ю61094100 2.8 992886
18:00−5ю4996100 1.3 991580
21:00−9сз2290100 2.1 99026
8 марта, пн
пн800:00−11сз2385100 0.0 99045
03:00−13сз3383100 0.0 99253
06:00−15сз2387100 0.0 99228
09:00−12сз2486100 0.0 994171
12:00−8сз2487100 0.0 996359
15:00−7сз3588100 0.1 998675
18:00−9с4893100 0.4 1001479
21:00−12с399497 0.5 1004419
9 марта, вт
вт900:00−16ссз369681 0.1 1007115
03:00−18ссз379772 0.1 1009170
06:00−23ссз359844 0.0 101197
09:00−20с369524 0.0 1013248
12:00−16ссз359166 0.0 1014419
15:00−14ссз358883 0.1 1015618
18:00−18ссз3694100 0.0 1017158
21:00−22с379793 0.1 1019151
10 марта, ср
ср1000:00−26с33970 0.0 102172
03:00−28ссз33970 0.0 102258
06:00−30ссз23970 0.0 102452
09:00−25ссз25940 0.0 1025220
12:00−18сз24850 0.0 1025412
15:00−15зсз36830 0.0 1024600
18:00−17з379239 0.0 1023170
21:00−19зсз399540 0.0 1024235
11 марта, чт
чт1100:00−21зсз38974 0.0 1024175
03:00−21зсз37974 0.0 1025154
06:00−21зсз37951 0.0 1025143
09:00−17зсз36910 0.0 1025258
12:00−11з35880 0.0 1025343
15:00−9з36850 0.0 1024451
18:00−14юз23910 0.0 102321
21:00−17ююз33900 0.0 102347